Weather History for Nantucket, MA

Change the Weather History Date:

Friday, February 8, 2013

  Actual Average Record
Temperature  
Mean Temperature 35 °F -  
Max Temperature 37 °F 35 °F 55 °F (1971)
Min Temperature 33 °F 22 °F 5 °F (1963)
Degree Days  
Heating Degree Days 30    
Moisture  
Dew Point 32 °F    
Average Humidity 87    
Maximum Humidity 96    
Minimum Humidity 70    
Precipitation  
Precipitation 1.63 in - - ()
Sea Level Pressure  
Sea Level Pressure 29.82 in    
Wind  
Wind Speed 24 mph (ENE)    
Max Wind Speed 48 mph    
Max Gust Speed 69 mph    
Visibility 4 miles    
Events Rain , Snow    
Averages and records for this station are not official NWS values.
T = Trace of Precipitation, MM = Missing Value Source: NWS Daily Summary

Daily Weather History Graph

Daily Weather History Graph

Search for Another Location

Airport:

Trip Planner

Search our weather history database for the weather conditions in past years. The results will help you decide how hot, cold, wet, or windy it might be!

Date:

Astronomy

Feb. 08, 2013 Rise Set
Actual Time 6:43 AM EST 5:05 PM EST
Civil Twilight 6:14 AM EST 5:34 PM EST
Nautical Twilight 5:42 AM EST 6:07 PM EST
Astronomical Twilight 5:10 AM EST 6:39 PM EST
Moon 5:10 AM EST (2/8) 3:35 PM EST (2/8)
Length of Visible Light 11h 19m
Length of Day
10h 22m
Waning Crescent, 3% of the Moon is Illuminated
Feb 8
Waning Crescent
Feb 10
New
Feb 17
First Quarter
Feb 25
Full
Mar 4
Last Quarter

Hourly Weather History & Observations

Time (EST) Temp. Windchill Dew Point Humidity Pressure Visibility Wind Dir Wind Speed Gust Speed Precip Events Conditions
12:53 AM 33.1 °F 23.9 °F 25.0 °F 72% 30.43 in 10.0 mi East 12.7 mph - N/A   Overcast
1:53 AM 33.1 °F 23.4 °F 25.0 °F 72% 30.41 in 10.0 mi East 13.8 mph - N/A   Overcast
2:53 AM 33.1 °F 23.4 °F 25.0 °F 72% 30.38 in 10.0 mi East 13.8 mph - N/A   Overcast
3:53 AM 34.0 °F 23.4 °F 25.0 °F 70% 30.36 in 10.0 mi East 17.3 mph 23.0 mph N/A   Overcast
4:53 AM 34.0 °F 23.4 °F 25.0 °F 70% 30.33 in 10.0 mi East 17.3 mph 25.3 mph N/A   Overcast
5:53 AM 34.0 °F 23.0 °F 26.1 °F 73% 30.30 in 10.0 mi East 18.4 mph 25.3 mph N/A   Overcast
6:53 AM 34.0 °F 22.7 °F 26.1 °F 73% 30.30 in 10.0 mi East 19.6 mph 26.5 mph N/A   Overcast
7:53 AM 35.1 °F 23.3 °F 27.0 °F 72% 30.26 in 10.0 mi East 23.0 mph 32.2 mph N/A   Overcast
8:53 AM 36.0 °F 25.6 °F 28.9 °F 76% 30.25 in 10.0 mi East 18.4 mph 32.2 mph N/A   Overcast
9:53 AM 35.1 °F 23.5 °F 32.0 °F 89% 30.21 in 3.0 mi East 21.9 mph 34.5 mph 0.00 in Snow Light Snow
10:08 AM 35.6 °F 24.5 °F 32.0 °F 87% 30.20 in 3.0 mi East 20.7 mph 31.1 mph 0.00 in Snow Light Snow
10:53 AM 35.1 °F 23.5 °F 33.1 °F 92% 30.16 in 3.0 mi East 21.9 mph 33.4 mph 0.02 in Snow Light Snow
11:20 AM 35.6 °F 23.7 °F 33.8 °F 93% 30.13 in 3.0 mi East 24.2 mph 35.7 mph 0.01 in Snow Light Snow
11:53 AM 36.0 °F 25.3 °F 33.1 °F 89% 30.09 in 3.0 mi East 19.6 mph 33.4 mph 0.03 in Rain Light Rain
12:53 PM 37.0 °F 25.6 °F 34.0 °F 89% 30.03 in 6.0 mi East 24.2 mph 39.1 mph 0.03 in Rain Light Rain
1:53 PM 37.0 °F 24.9 °F 35.1 °F 93% 29.96 in 4.0 mi East 27.6 mph 38.0 mph 0.04 in Rain Light Rain
2:34 PM 37.4 °F 26.6 °F 35.6 °F 93% 29.91 in 4.0 mi ENE 21.9 mph 39.1 mph 0.05 in Rain Rain
2:53 PM 37.0 °F 24.9 °F 35.1 °F 93% 29.88 in 3.0 mi ENE 27.6 mph 39.1 mph 0.08 in Rain Rain
3:45 PM 37.4 °F 24.8 °F 33.8 °F 87% 29.80 in 3.0 mi ENE 31.1 mph 44.9 mph 0.12 in Rain Rain
3:47 PM 37.4 °F 25.0 °F 33.8 °F 87% 29.80 in 2.5 mi ENE 29.9 mph 44.9 mph 0.12 in Rain Rain
3:53 PM 36.0 °F 23.0 °F 34.0 °F 93% 29.79 in 3.0 mi ENE 29.9 mph 44.9 mph 0.14 in Rain Rain
4:15 PM 35.6 °F 23.0 °F 33.8 °F 93% 29.77 in 2.5 mi ENE 27.6 mph 43.7 mph 0.04 in Rain Rain
4:27 PM 35.6 °F 22.5 °F 33.8 °F 93% 29.73 in 3.0 mi ENE 29.9 mph 42.6 mph 0.06 in Rain Rain
4:37 PM 35.6 °F 23.7 °F 33.8 °F 93% 29.71 in 2.5 mi ENE 24.2 mph 41.4 mph 0.09 in Rain Rain
4:45 PM 35.6 °F 21.9 °F 33.8 °F 93% 29.70 in 3.0 mi ENE 33.4 mph 49.5 mph 0.11 in Rain Rain
4:53 PM 36.0 °F 23.2 °F 34.0 °F 93% 29.69 in 3.0 mi ENE 28.8 mph 49.5 mph 0.13 in Rain Rain
5:48 PM 37.4 °F 24.4 °F 35.6 °F 93% 29.60 in 4.0 mi NE 33.4 mph 54.1 mph 0.12 in Rain Rain
5:53 PM 37.0 °F 23.9 °F 35.1 °F 93% 29.60 in 4.0 mi ENE 33.4 mph 54.1 mph 0.13 in Rain Rain
6:00 PM 37.4 °F 23.0 °F 35.6 °F 93% 29.57 in 4.0 mi NE 42.6 mph 58.7 mph 0.01 in Rain Rain
6:53 PM 37.0 °F 23.1 °F 35.1 °F 93% 29.49 in 2.5 mi ENE 38.0 mph 56.4 mph 0.12 in Rain Rain
7:02 PM 37.4 °F 24.0 °F 35.6 °F 93% 29.47 in 3.0 mi NE 35.7 mph 58.7 mph 0.01 in Rain Light Rain
7:19 PM 37.4 °F 24.2 °F 35.6 °F 93% 29.45 in 2.5 mi NE 34.5 mph 55.2 mph 0.05 in Rain Rain
7:53 PM 37.0 °F 23.0 °F 34.0 °F 89% 29.40 in 1.8 mi NE 39.1 mph 57.5 mph 0.15 in Rain Heavy Rain
8:04 PM 37.4 °F 22.4 °F 33.8 °F 87% 29.38 in 2.0 mi NE 47.2 mph 63.3 mph 0.03 in Rain Light Rain
8:17 PM 37.4 °F 22.8 °F 33.8 °F 87% 29.35 in 1.5 mi NE 43.7 mph 57.5 mph 0.06 in Rain Rain
8:37 PM 37.4 °F 23.1 °F 35.6 °F 93% 29.33 in 2.0 mi NE 41.4 mph 65.6 mph 0.09 in Rain Light Rain
8:49 PM 35.6 °F 19.7 °F 33.8 °F 93% 29.33 in 1.5 mi NE 48.3 mph 69.0 mph 0.16 in Rain Heavy Rain
8:53 PM 36.0 °F 20.8 °F 34.0 °F 93% 29.32 in 1.5 mi NE 43.7 mph 63.3 mph 0.19 in Rain Heavy Rain
9:53 PM 35.1 °F 20.0 °F 33.1 °F 92% 29.24 in 1.8 mi NE 40.3 mph 62.1 mph 0.24 in Snow Light Snow
10:53 PM 34.0 °F 17.9 °F 33.1 °F 96% 29.19 in 1.2 mi NNE 44.9 mph 58.7 mph 0.19 in Snow Light Snow
11:53 PM 34.0 °F 17.6 °F 33.1 °F 96% 29.16 in 1.2 mi NNE 47.2 mph 58.7 mph 0.14 in Snow Light Snow